TimeEST,TemperatureF,Dew PointF,Humidity,Sea Level PressureIn,VisibilityMPH,Wind Direction,Wind SpeedMPH,Gust SpeedMPH,PrecipitationIn,Events,Conditions,WindDirDegrees,DateUTC
12:55 AM,28.0,15.1,58,30.11,10.0,North,11.5,20.7,0.00,,Overcast,360,2012-12-05 05:55:00
1:55 AM,27.0,15.1,61,30.15,7.0,North,6.9,19.6,0.00,Snow,Light Snow,360,2012-12-05 06:55:00
2:55 AM,27.0,15.1,61,30.19,10.0,NNW,12.7,19.6,0.00,,Overcast,330,2012-12-05 07:55:00
3:06 AM,25.0,17.1,72,30.17,1.8,NNW,10.4,18.4,0.00,Snow,Light Snow,340,2012-12-05 08:06:00
3:14 AM,25.0,18.0,75,30.17,2.0,NNW,5.8,-,0.00,Snow,Light Snow,340,2012-12-05 08:14:00
3:25 AM,26.1,17.1,69,30.18,3.0,NNW,10.4,-,0.00,Snow,Light Snow,330,2012-12-05 08:25:00
3:30 AM,25.0,18.0,75,30.18,1.8,NNW,11.5,-,0.00,Snow,Light Snow,340,2012-12-05 08:30:00
3:43 AM,24.1,19.0,81,30.18,0.8,NNW,9.2,-,0.00,Snow,Light Snow,330,2012-12-05 08:43:00
3:55 AM,24.1,19.9,84,30.20,1.5,NNW,5.8,-,0.01,Snow,Light Snow,340,2012-12-05 08:55:00
4:03 AM,24.1,19.9,84,30.18,3.0,NNW,4.6,-,0.00,Snow,Light Snow,340,2012-12-05 09:03:00
4:19 AM,25.0,19.9,81,30.19,1.8,NW,6.9,-,0.00,Snow,Light Snow,320,2012-12-05 09:19:00
4:26 AM,25.0,19.9,81,30.20,2.5,NW,5.8,-,0.00,Snow,Light Snow,320,2012-12-05 09:26:00
4:33 AM,24.1,19.9,84,30.20,3.0,NNW,6.9,-,0.00,Snow,Light Snow,330,2012-12-05 09:33:00
4:52 AM,24.8,17.6,74,30.22,9.0,NNW,11.5,-,0.00,,Overcast,330,2012-12-05 09:52:00
4:55 AM,25.0,17.1,72,30.24,9.0,NNW,10.4,-,0.00,,Overcast,340,2012-12-05 09:55:00
5:55 AM,23.0,10.0,58,30.30,10.0,North,15.0,23.0,N/A,,Clear,350,2012-12-05 10:55:00
6:55 AM,21.9,8.1,55,30.33,10.0,North,10.4,-,N/A,,Clear,10,2012-12-05 11:55:00
7:55 AM,21.0,9.0,60,30.36,10.0,North,6.9,-,N/A,,Scattered Clouds,10,2012-12-05 12:55:00
9:43 AM,23.0,10.0,58,30.39,10.0,North,9.2,-,N/A,,Scattered Clouds,360,2012-12-05 14:43:00
9:55 AM,23.0,10.0,58,30.42,10.0,North,9.2,-,N/A,,Partly Cloudy,360,2012-12-05 14:55:00
10:55 AM,25.0,10.9,55,30.43,10.0,Variable,5.8,-,N/A,,Clear,0,2012-12-05 15:55:00
11:55 AM,26.1,10.0,51,30.42,10.0,Variable,3.5,-,N/A,,Clear,0,2012-12-05 16:55:00
12:55 PM,27.0,10.9,51,30.41,10.0,NW,3.5,-,N/A,,Clear,310,2012-12-05 17:55:00
1:55 PM,28.0,10.0,47,30.39,10.0,NW,3.5,-,N/A,,Clear,320,2012-12-05 18:55:00
2:55 PM,28.0,10.0,47,30.38,10.0,Calm,Calm,-,N/A,,Clear,0,2012-12-05 19:55:00
3:55 PM,27.0,12.9,56,30.39,10.0,West,3.5,-,N/A,,Clear,270,2012-12-05 20:55:00
4:55 PM,26.1,15.1,63,30.38,10.0,Calm,Calm,-,N/A,,Clear,0,2012-12-05 21:55:00
5:55 PM,21.9,14.0,72,30.39,10.0,Calm,Calm,-,N/A,,Clear,0,2012-12-05 22:55:00
6:55 PM,23.0,14.0,68,30.36,10.0,ESE,3.5,-,N/A,,Clear,120,2012-12-05 23:55:00
7:55 PM,19.9,12.9,74,30.38,10.0,South,3.5,-,N/A,,Clear,180,2012-12-06 00:55:00
8:55 PM,19.0,12.9,77,30.38,10.0,SSE,3.5,-,N/A,,Clear,160,2012-12-06 01:55:00
9:55 PM,23.0,15.1,72,30.34,10.0,SE,5.8,-,N/A,,Clear,130,2012-12-06 02:55:00
10:55 PM,23.0,16.0,74,30.32,10.0,ESE,5.8,-,N/A,,Clear,120,2012-12-06 03:55:00
11:55 PM,25.0,17.1,72,30.30,10.0,SE,6.9,-,N/A,,Clear,130,2012-12-06 04:55:00